| time (UTC) | temp F | wind direction | speed MPH | gust MPH | rain 1hr in | rain 24hr in | rain mn in | humidity % | barometer mb |
| 20260507033716 | 62 | 269 | 4.0 | 14.0 | 0.00 | 0.00 | 0.00 | 88 | 1016.7 |
| 20260507033213 | 62 | 271 | 4.0 | 11.0 | 0.00 | 0.00 | 0.00 | 89 | 1016.6 |
| 20260507032710 | 62 | 294 | 5.0 | 9.0 | 0.00 | 0.00 | 0.00 | 89 | 1016.5 |
| 20260507032206 | 62 | 240 | 4.0 | 10.0 | 0.00 | 0.00 | 0.00 | 89 | 1016.6 |
| 20260507031703 | 62 | 284 | 3.0 | 7.0 | 0.00 | 0.00 | 0.00 | 90 | 1016.4 |
| 20260507031200 | 62 | 257 | 5.0 | 12.0 | 0.00 | 0.00 | 0.00 | 89 | 1016.4 |
| 20260507030656 | 62 | 281 | 7.0 | 13.0 | 0.00 | 0.00 | 0.00 | 89 | 1016.4 |
| 20260507030154 | 62 | 265 | 7.0 | 16.0 | 0.00 | 0.00 | 0.00 | 89 | 1016.2 |
| 20260507025651 | 62 | 283 | 12.0 | 16.0 | 0.00 | 0.00 | 0.00 | 89 | 1016.5 |
| 20260507025148 | 62 | 273 | 7.0 | 19.0 | 0.00 | 0.00 | 0.00 | 89 | 1016.3 |
| 20260507024646 | 62 | 261 | 7.0 | 13.0 | 0.00 | 0.00 | 0.00 | 89 | 1016.1 |
| 20260507024143 | 62 | 285 | 7.0 | 16.0 | 0.00 | 0.00 | 0.00 | 88 | 1016.2 |
| 20260507023638 | 62 | 278 | 6.0 | 15.0 | 0.00 | 0.00 | 0.00 | 88 | 1016.1 |
| 20260507023136 | 62 | 264 | 7.0 | 15.0 | 0.00 | 0.00 | 0.00 | 87 | 1016.0 |
| 20260507022633 | 62 | 250 | 6.0 | 19.0 | 0.00 | 0.00 | 0.00 | 87 | 1015.8 |
| 20260507022128 | 62 | 229 | 2.0 | 19.0 | 0.00 | 0.00 | 0.00 | 87 | 1016.0 |
| 20260507021625 | 63 | 274 | 6.0 | 18.0 | 0.00 | 0.00 | 0.00 | 86 | 1016.0 |
| 20260507021120 | 63 | 267 | 9.0 | 19.0 | 0.00 | 0.00 | 0.00 | 86 | 1016.0 |
| 20260507020619 | 63 | 255 | 8.0 | 19.0 | 0.00 | 0.00 | 0.00 | 86 | 1015.9 |
| 20260507020115 | 63 | 258 | 9.0 | 19.0 | 0.00 | 0.00 | 0.00 | 85 | 1015.9 |
| 20260507015614 | 63 | 278 | 8.0 | 19.0 | 0.00 | 0.00 | 0.00 | 85 | 1015.9 |
| 20260507015111 | 63 | 300 | 5.0 | 18.0 | 0.00 | 0.00 | 0.00 | 85 | 1015.9 |
| 20260507014607 | 64 | 252 | 9.0 | 14.0 | 0.00 | 0.00 | 0.00 | 86 | 1015.8 |
| 20260507014103 | 64 | 306 | 6.0 | 18.0 | 0.00 | 0.00 | 0.00 | 86 | 1015.9 |
| 20260507013600 | 64 | 286 | 7.0 | 14.0 | 0.00 | 0.00 | 0.00 | 85 | 1015.8 |
| 20260507013057 | 64 | 269 | 9.0 | 21.0 | 0.00 | 0.00 | 0.00 | 85 | 1015.6 |
| 20260507012554 | 64 | 271 | 11.0 | 16.0 | 0.00 | 0.00 | 0.00 | 86 | 1015.9 |
| 20260507012049 | 64 | 273 | 12.0 | 18.0 | 0.00 | 0.00 | 0.00 | 85 | 1015.8 |
| 20260507011547 | 64 | 214 | 5.0 | 13.0 | 0.00 | 0.00 | 0.00 | 85 | 1015.7 |
| 20260507011038 | 64 | 266 | 8.0 | 17.0 | 0.00 | 0.00 | 0.00 | 85 | 1015.6 |
| 20260507010532 | 65 | 273 | 6.0 | 13.0 | 0.00 | 0.00 | 0.00 | 84 | 1015.6 |
| 20260507010029 | 64 | 246 | 7.0 | 24.0 | 0.00 | 0.00 | 0.00 | 86 | 1015.7 |
| 20260507005527 | 64 | 250 | 5.0 | 21.0 | 0.00 | 0.00 | 0.00 | 86 | 1015.6 |
| 20260507005023 | 65 | 281 | 17.0 | 19.0 | 0.00 | 0.00 | 0.00 | 84 | 1015.7 |
| 20260507004520 | 65 | 265 | 8.0 | 15.0 | 0.00 | 0.00 | 0.00 | 83 | 1015.5 |
| 20260507004018 | 65 | 217 | 9.0 | 18.0 | 0.00 | 0.00 | 0.00 | 83 | 1015.6 |
| 20260507003513 | 65 | 284 | 13.0 | 20.0 | 0.00 | 0.00 | 0.00 | 84 | 1015.6 |
| 20260507003008 | 65 | 273 | 11.0 | 17.0 | 0.00 | 0.00 | 0.00 | 83 | 1015.7 |
| 20260507002505 | 64 | 281 | 2.0 | 19.0 | 0.00 | 0.00 | 0.00 | 86 | 1015.7 |
| 20260507002001 | 65 | 280 | 15.0 | 20.0 | 0.00 | 0.00 | 0.00 | 85 | 1015.7 |
| 20260507001457 | 65 | 263 | 8.0 | 20.0 | 0.00 | 0.00 | 0.00 | 84 | 1015.7 |
| 20260507000955 | 65 | 267 | 6.0 | 20.0 | 0.00 | 0.00 | 0.00 | 84 | 1015.7 |
| 20260507000451 | 66 | 263 | 4.0 | 21.0 | 0.00 | 0.00 | 0.00 | 84 | 1015.6 |
| 20260506235946 | 67 | 258 | 2.0 | 15.0 | 0.00 | 0.00 | 0.00 | 82 | 1015.5 |
| 20260506235444 | 66 | 173 | 3.0 | 13.0 | 0.00 | 0.00 | 0.00 | 82 | 1015.5 |
| 20260506234939 | 66 | 280 | 7.0 | 21.0 | 0.00 | 0.00 | 0.00 | 80 | 1015.7 |
| 20260506234437 | 66 | 291 | 11.0 | 23.0 | 0.00 | 0.00 | 0.00 | 81 | 1015.5 |
| 20260506233934 | 66 | 271 | 7.0 | 17.0 | 0.00 | 0.00 | 0.00 | 82 | 1015.5 |
| 20260506233431 | 67 | 269 | 10.0 | 17.0 | 0.00 | 0.00 | 0.00 | 80 | 1015.6 |
| 20260506232928 | 68 | 316 | 8.0 | 17.0 | 0.00 | 0.00 | 0.00 | 79 | 1015.6 |
| 20260506232424 | 67 | 281 | 4.0 | 17.0 | 0.00 | 0.00 | 0.00 | 81 | 1015.7 |
| 20260506231920 | 66 | 267 | 22.0 | 22.0 | 0.00 | 0.00 | 0.00 | 81 | 1015.7 |
| 20260506231418 | 67 | 267 | 7.0 | 16.0 | 0.00 | 0.00 | 0.00 | 81 | 1015.7 |
| 20260506230915 | 66 | 288 | 5.0 | 19.0 | 0.00 | 0.00 | 0.00 | 80 | 1015.7 |
| 20260506230411 | 66 | 274 | 14.0 | 19.0 | 0.00 | 0.00 | 0.00 | 80 | 1015.9 |
| 20260506225908 | 67 | 242 | 4.0 | 17.0 | 0.00 | 0.00 | 0.00 | 80 | 1015.9 |
| 20260506225405 | 67 | 262 | 8.0 | 14.0 | 0.00 | 0.00 | 0.00 | 80 | 1015.9 |
| 20260506224902 | 66 | 258 | 11.0 | 18.0 | 0.00 | 0.00 | 0.00 | 82 | 1015.9 |
| 20260506224359 | 66 | 264 | 12.0 | 19.0 | 0.00 | 0.00 | 0.00 | 81 | 1016.0 |
| 20260506223855 | 66 | 272 | 2.0 | 19.0 | 0.00 | 0.00 | 0.00 | 81 | 1016.2 |
| 20260506223350 | 67 | 279 | 6.0 | 17.0 | 0.00 | 0.00 | 0.00 | 80 | 1016.2 |
| 20260506222848 | 67 | 272 | 5.0 | 19.0 | 0.00 | 0.00 | 0.00 | 77 | 1016.2 |
| 20260506222343 | 67 | 287 | 5.0 | 15.0 | 0.00 | 0.00 | 0.00 | 76 | 1016.2 |
| 20260506221841 | 68 | 320 | 3.0 | 15.0 | 0.00 | 0.00 | 0.00 | 73 | 1016.3 |
| 20260506221339 | 69 | 287 | 15.0 | 15.0 | 0.00 | 0.00 | 0.00 | 70 | 1016.2 |
| 20260506220836 | 68 | 250 | 3.0 | 16.0 | 0.00 | 0.00 | 0.00 | 73 | 1016.4 |
| 20260506220331 | 70 | 254 | 4.0 | 16.0 | 0.00 | 0.00 | 0.00 | 67 | 1016.5 |
| 20260506215829 | 69 | 283 | 11.0 | 14.0 | 0.00 | 0.00 | 0.00 | 68 | 1016.3 |
| 20260506215324 | 70 | 280 | 11.0 | 13.0 | 0.00 | 0.00 | 0.00 | 67 | 1016.7 |
| 20260506214820 | 70 | 226 | 3.0 | 19.0 | 0.00 | 0.00 | 0.00 | 68 | 1016.6 |
| 20260506214317 | 70 | 257 | 5.0 | 13.0 | 0.00 | 0.00 | 0.00 | 68 | 1016.8 |
| 20260506213816 | 71 | 117 | 2.0 | 8.0 | 0.00 | 0.00 | 0.00 | 69 | 1016.7 |
| 20260506213313 | 71 | 234 | 3.0 | 12.0 | 0.00 | 0.00 | 0.00 | 69 | 1016.9 |
| 20260506212810 | 71 | 278 | 1.0 | 8.0 | 0.00 | 0.00 | 0.00 | 68 | 1016.9 |
| 20260506212307 | 71 | 218 | 2.0 | 7.0 | 0.00 | 0.00 | 0.00 | 66 | 1017.0 |
| 20260506211801 | 71 | 231 | 3.0 | 11.0 | 0.00 | 0.00 | 0.00 | 67 | 1016.8 |
| 20260506211257 | 70 | 244 | 3.0 | 13.0 | 0.00 | 0.00 | 0.00 | 65 | 1016.8 |
| 20260506210754 | 70 | 283 | 1.0 | 10.0 | 0.00 | 0.00 | 0.00 | 65 | 1017.1 |
| 20260506210251 | 70 | 241 | 4.0 | 12.0 | 0.00 | 0.00 | 0.00 | 71 | 1017.1 |
| 20260506205748 | 70 | 300 | 2.0 | 13.0 | 0.00 | 0.00 | 0.00 | 72 | 1017.3 |
| 20260506205244 | 71 | 240 | 3.0 | 9.0 | 0.00 | 0.00 | 0.00 | 69 | 1017.3 |
| 20260506204741 | 69 | 245 | 7.0 | 11.0 | 0.00 | 0.00 | 0.00 | 72 | 1017.3 |
| 20260506204238 | 70 | 205 | 2.0 | 6.0 | 0.00 | 0.00 | 0.00 | 72 | 1017.1 |
| 20260506203736 | 69 | 247 | 3.0 | 10.0 | 0.00 | 0.00 | 0.00 | 73 | 1017.2 |
| 20260506203233 | 69 | 334 | 2.0 | 11.0 | 0.00 | 0.00 | 0.00 | 73 | 1017.2 |
| 20260506202730 | 69 | 250 | 2.0 | 8.0 | 0.00 | 0.00 | 0.00 | 74 | 1017.3 |
| 20260506202227 | 69 | 232 | 4.0 | 11.0 | 0.00 | 0.00 | 0.00 | 74 | 1017.3 |
| 20260506201724 | 69 | 217 | 2.0 | 10.0 | 0.00 | 0.00 | 0.00 | 73 | 1017.6 |
| 20260506201220 | 69 | 293 | 1.0 | 11.0 | 0.00 | 0.00 | 0.00 | 75 | 1017.7 |
| 20260506200717 | 69 | 192 | 2.0 | 9.0 | 0.00 | 0.00 | 0.00 | 74 | 1017.8 |
| 20260506200208 | 69 | 205 | 5.0 | 9.0 | 0.00 | 0.00 | 0.00 | 74 | 1017.7 |
| 20260506195659 | 68 | 248 | 4.0 | 8.0 | 0.00 | 0.00 | 0.00 | 75 | 1017.6 |
| 20260506195155 | 69 | 240 | 2.0 | 7.0 | 0.00 | 0.00 | 0.00 | 73 | 1017.8 |
| 20260506194653 | 69 | 234 | 3.0 | 15.0 | 0.00 | 0.00 | 0.00 | 73 | 1017.8 |
| 20260506194149 | 69 | 286 | 2.0 | 11.0 | 0.00 | 0.00 | 0.00 | 74 | 1017.8 |
| 20260506193647 | 69 | 207 | 0.0 | 9.0 | 0.00 | 0.00 | 0.00 | 74 | 1018.0 |
| 20260506193144 | 69 | 253 | 4.0 | 11.0 | 0.00 | 0.00 | 0.00 | 73 | 1017.9 |
| 20260506192640 | 69 | 204 | 1.0 | 6.0 | 0.00 | 0.00 | 0.00 | 74 | 1017.9 |
| 20260506192136 | 69 | 291 | 2.0 | 11.0 | 0.00 | 0.00 | 0.00 | 74 | 1018.0 |
| 20260506191634 | 70 | 237 | 2.0 | 9.0 | 0.00 | 0.00 | 0.00 | 72 | 1018.0 |
| 20260506191129 | 69 | 272 | 2.0 | 9.0 | 0.00 | 0.00 | 0.00 | 72 | 1018.0 |
| 20260506190627 | 69 | 290 | 3.0 | 13.0 | 0.00 | 0.00 | 0.00 | 73 | 1018.4 |
| 20260506190124 | 69 | 276 | 2.0 | 10.0 | 0.00 | 0.00 | 0.00 | 73 | 1018.2 |
| 20260506185621 | 70 | 230 | 1.0 | 6.0 | 0.00 | 0.00 | 0.00 | 72 | 1018.4 |
| 20260506185117 | 69 | 232 | 2.0 | 7.0 | 0.00 | 0.00 | 0.00 | 72 | 1018.4 |
| 20260506184614 | 68 | 295 | 2.0 | 11.0 | 0.00 | 0.00 | 0.00 | 74 | 1018.4 |
| 20260506184112 | 70 | 186 | 3.0 | 7.0 | 0.00 | 0.00 | 0.00 | 71 | 1018.4 |
| 20260506183608 | 70 | 252 | 3.0 | 6.0 | 0.00 | 0.00 | 0.00 | 72 | 1018.5 |
| 20260506183104 | 69 | 276 | 2.0 | 7.0 | 0.00 | 0.00 | 0.00 | 74 | 1018.5 |
| 20260506182602 | 69 | 258 | 4.0 | 7.0 | 0.00 | 0.00 | 0.00 | 75 | 1018.4 |
| 20260506182059 | 69 | 215 | 3.0 | 8.0 | 0.00 | 0.00 | 0.00 | 74 | 1018.4 |
| 20260506181557 | 69 | 215 | 2.0 | 8.0 | 0.00 | 0.00 | 0.00 | 74 | 1018.5 |
| 20260506181053 | 69 | 43 | 2.0 | 8.0 | 0.00 | 0.00 | 0.00 | 75 | 1018.6 |
| 20260506180550 | 68 | 238 | 2.0 | 8.0 | 0.00 | 0.00 | 0.00 | 76 | 1018.5 |
| 20260506180047 | 68 | 222 | 3.0 | 8.0 | 0.00 | 0.00 | 0.00 | 75 | 1018.4 |
| 20260506175543 | 68 | 342 | 1.0 | 7.0 | 0.00 | 0.00 | 0.00 | 76 | 1018.5 |
| 20260506175039 | 68 | 250 | 2.0 | 8.0 | 0.00 | 0.00 | 0.00 | 75 | 1018.5 |
| 20260506174538 | 68 | 169 | 4.0 | 6.0 | 0.00 | 0.00 | 0.00 | 75 | 1018.6 |
| 20260506174034 | 68 | 272 | 2.0 | 9.0 | 0.00 | 0.00 | 0.00 | 75 | 1018.5 |
| 20260506173532 | 68 | 268 | 1.0 | 5.0 | 0.00 | 0.00 | 0.00 | 75 | 1018.4 |
| 20260506173028 | 68 | 252 | 2.0 | 7.0 | 0.00 | 0.00 | 0.00 | 75 | 1018.5 |
| 20260506172526 | 68 | 240 | 3.0 | 8.0 | 0.00 | 0.00 | 0.00 | 75 | 1018.5 |
| 20260506172022 | 67 | 259 | 3.0 | 11.0 | 0.00 | 0.00 | 0.00 | 76 | 1018.6 |
| 20260506171519 | 69 | 248 | 3.0 | 11.0 | 0.00 | 0.00 | 0.00 | 73 | 1018.6 |
| 20260506171017 | 68 | 303 | 2.0 | 6.0 | 0.00 | 0.00 | 0.00 | 75 | 1018.5 |
| 20260506170514 | 68 | 275 | 2.0 | 6.0 | 0.00 | 0.00 | 0.00 | 74 | 1018.5 |
| 20260506170011 | 68 | 33 | 2.0 | 7.0 | 0.00 | 0.00 | 0.00 | 75 | 1018.5 |
| 20260506165510 | 68 | 255 | 1.0 | 7.0 | 0.00 | 0.00 | 0.00 | 74 | 1018.4 |
| 20260506165000 | 67 | 263 | 4.0 | 8.0 | 0.00 | 0.00 | 0.00 | 74 | 1018.2 |
| 20260506164457 | 69 | 292 | 2.0 | 4.0 | 0.00 | 0.00 | 0.00 | 73 | 1018.3 |
| 20260506163955 | 67 | 337 | 2.0 | 8.0 | 0.00 | 0.00 | 0.00 | 74 | 1018.4 |
| 20260506163449 | 68 | 311 | 2.0 | 5.0 | 0.00 | 0.00 | 0.00 | 73 | 1018.3 |
| 20260506162949 | 67 | 246 | 3.0 | 6.0 | 0.00 | 0.00 | 0.00 | 75 | 1018.4 |
| 20260506162447 | 67 | 260 | 2.0 | 8.0 | 0.00 | 0.00 | 0.00 | 74 | 1018.3 |
| 20260506161939 | 67 | 235 | 1.0 | 4.0 | 0.00 | 0.00 | 0.00 | 74 | 1018.3 |
| 20260506161437 | 67 | 196 | 2.0 | 5.0 | 0.00 | 0.00 | 0.00 | 74 | 1018.3 |
| 20260506160929 | 68 | 298 | 2.0 | 6.0 | 0.00 | 0.00 | 0.00 | 73 | 1018.4 |
| 20260506160426 | 68 | 102 | 3.0 | 7.0 | 0.00 | 0.00 | 0.00 | 71 | 1018.5 |
| 20260506155923 | 69 | 72 | 4.0 | 8.0 | 0.00 | 0.00 | 0.00 | 70 | 1018.5 |
| 20260506155420 | 69 | 115 | 3.0 | 5.0 | 0.00 | 0.00 | 0.00 | 71 | 1018.6 |
| 20260506153542 | 68 | 42 | 2.0 | 4.0 | 0.00 | 0.00 | 0.00 | 74 | 1018.4 |
| 20260506153040 | 67 | 33 | 0.0 | 4.0 | 0.00 | 0.00 | 0.00 | 75 | 1018.3 |
| 20260506152537 | 67 | 114 | 4.0 | 5.0 | 0.00 | 0.00 | 0.00 | 74 | 1018.4 |
| 20260506152035 | 68 | 10 | 2.0 | 4.0 | 0.00 | 0.00 | 0.00 | 73 | 1018.4 |
| 20260506151532 | 67 | 59 | 2.0 | 4.0 | 0.00 | 0.00 | 0.00 | 75 | 1018.4 |
| 20260506151029 | 66 | 15 | 0.0 | 4.0 | 0.00 | 0.00 | 0.00 | 77 | 1018.4 |
| 20260506150526 | 65 | 81 | 1.0 | 4.0 | 0.00 | 0.00 | 0.00 | 77 | 1018.4 |
| 20260506150023 | 66 | 70 | 6.0 | 6.0 | 0.00 | 0.00 | 0.00 | 75 | 1018.5 |
| 20260506145519 | 64 | 99 | 2.0 | 3.0 | 0.00 | 0.00 | 0.00 | 78 | 1018.3 |
| 20260506145017 | 63 | 22 | 2.0 | 5.0 | 0.00 | 0.00 | 0.00 | 79 | 1018.4 |
| 20260506144513 | 63 | 81 | 5.0 | 6.0 | 0.00 | 0.00 | 0.00 | 78 | 1018.3 |
| 20260506144011 | 62 | 81 | 3.0 | 4.0 | 0.00 | 0.00 | 0.00 | 79 | 1018.3 |
| 20260506143508 | 61 | 39 | 3.0 | 6.0 | 0.00 | 0.00 | 0.00 | 80 | 1018.3 |
| 20260506143007 | 61 | 57 | 2.0 | 5.0 | 0.00 | 0.00 | 0.00 | 81 | 1018.5 |
| 20260506142504 | 60 | 58 | 1.0 | 5.0 | 0.00 | 0.00 | 0.00 | 82 | 1018.5 |
| 20260506142002 | 60 | 71 | 4.0 | 6.0 | 0.00 | 0.00 | 0.00 | 82 | 1018.2 |
| 20260506141459 | 60 | 51 | 2.0 | 5.0 | 0.00 | 0.00 | 0.00 | 82 | 1018.2 |
| 20260506140958 | 60 | 53 | 3.0 | 4.0 | 0.00 | 0.00 | 0.00 | 83 | 1018.3 |
| 20260506140455 | 59 | 2 | 0.0 | 4.0 | 0.00 | 0.00 | 0.00 | 83 | 1018.2 |
| 20260506135951 | 58 | 70 | 3.0 | 5.0 | 0.00 | 0.00 | 0.00 | 84 | 1018.0 |
| 20260506135448 | 58 | 61 | 2.0 | 5.0 | 0.00 | 0.00 | 0.00 | 84 | 1018.2 |
| 20260506134944 | 58 | 63 | 3.0 | 4.0 | 0.00 | 0.00 | 0.00 | 85 | 1018.2 |
| 20260506134440 | 58 | 75 | 3.0 | 4.0 | 0.00 | 0.00 | 0.00 | 86 | 1018.1 |
| 20260506133937 | 58 | 41 | 1.0 | 3.0 | 0.00 | 0.00 | 0.00 | 87 | 1018.0 |
| 20260506133435 | 57 | 60 | 0.0 | 3.0 | 0.00 | 0.00 | 0.00 | 88 | 1018.1 |
| 20260506132931 | 56 | 63 | 1.0 | 3.0 | 0.00 | 0.00 | 0.00 | 89 | 1017.7 |
| 20260506132428 | 56 | 351 | 0.0 | 3.0 | 0.00 | 0.00 | 0.00 | 90 | 1017.8 |
| 20260506131926 | 55 | 81 | 1.0 | 2.0 | 0.00 | 0.00 | 0.00 | 91 | 1017.9 |
| 20260506131422 | 55 | 74 | 1.0 | 3.0 | 0.00 | 0.00 | 0.00 | 91 | 1017.8 |
| 20260506130919 | 55 | 45 | 2.0 | 2.0 | 0.00 | 0.00 | 0.00 | 91 | 1017.7 |
| 20260506130416 | 54 | 37 | 0.0 | 2.0 | 0.00 | 0.00 | 0.00 | 91 | 1017.6 |
| 20260506125914 | 54 | 49 | 0.0 | 2.0 | 0.00 | 0.00 | 0.00 | 91 | 1017.5 |
| 20260506125412 | 55 | 350 | 2.0 | 2.0 | 0.00 | 0.00 | 0.00 | 91 | 1017.7 |
| 20260506124910 | 55 | 65 | 0.0 | 2.0 | 0.00 | 0.00 | 0.00 | 91 | 1017.5 |
| 20260506124407 | 55 | 6 | 1.0 | 2.0 | 0.00 | 0.00 | 0.00 | 91 | 1017.6 |
| 20260506123905 | 55 | 52 | 1.0 | 3.0 | 0.00 | 0.00 | 0.00 | 91 | 1017.4 |
| 20260506123403 | 55 | 63 | 3.0 | 4.0 | 0.00 | 0.00 | 0.00 | 91 | 1017.4 |
| 20260506122900 | 55 | 94 | 2.0 | 4.0 | 0.00 | 0.00 | 0.00 | 91 | 1017.5 |
| 20260506122356 | 55 | 61 | 0.0 | 3.0 | 0.00 | 0.00 | 0.00 | 91 | 1017.3 |
| 20260506121855 | 55 | 32 | 1.0 | 2.0 | 0.00 | 0.00 | 0.00 | 91 | 1017.4 |
| 20260506121351 | 55 | 48 | 1.0 | 2.0 | 0.00 | 0.00 | 0.00 | 91 | 1017.3 |
| 20260506120848 | 55 | 58 | 0.0 | 3.0 | 0.00 | 0.00 | 0.00 | 91 | 1017.3 |
| 20260506120346 | 55 | 52 | 1.0 | 2.0 | 0.00 | 0.00 | 0.00 | 91 | 1017.2 |
| 20260506115843 | 55 | 94 | 2.0 | 3.0 | 0.00 | 0.00 | 0.00 | 91 | 1017.1 |
| 20260506115342 | 55 | 143 | 1.0 | 4.0 | 0.00 | 0.00 | 0.00 | 91 | 1017.2 |
| 20260506114839 | 55 | 94 | 4.0 | 5.0 | 0.00 | 0.00 | 0.00 | 91 | 1017.2 |
| 20260506114336 | 55 | 86 | 4.0 | 5.0 | 0.00 | 0.00 | 0.00 | 92 | 1017.3 |
| 20260506113835 | 55 | 82 | 4.0 | 4.0 | 0.00 | 0.00 | 0.00 | 92 | 1017.2 |
| 20260506113332 | 55 | 74 | 2.0 | 4.0 | 0.00 | 0.00 | 0.00 | 92 | 1017.2 |
| 20260506112828 | 56 | 38 | 1.0 | 4.0 | 0.00 | 0.00 | 0.00 | 92 | 1017.2 |
| 20260506112326 | 56 | 65 | 4.0 | 4.0 | 0.00 | 0.00 | 0.00 | 93 | 1017.0 |
| 20260506111823 | 56 | 97 | 0.0 | 4.0 | 0.00 | 0.00 | 0.00 | 93 | 1017.0 |
| 20260506111321 | 56 | 94 | 2.0 | 4.0 | 0.00 | 0.00 | 0.00 | 93 | 1017.0 |
| 20260506110819 | 56 | 89 | 2.0 | 5.0 | 0.00 | 0.00 | 0.00 | 93 | 1017.1 |
| 20260506110315 | 56 | 94 | 2.0 | 4.0 | 0.00 | 0.00 | 0.00 | 93 | 1017.1 |
| 20260506105812 | 56 | 80 | 1.0 | 3.0 | 0.00 | 0.00 | 0.00 | 94 | 1017.2 |
| 20260506105309 | 56 | 77 | 2.0 | 4.0 | 0.00 | 0.00 | 0.00 | 94 | 1017.2 |
| 20260506104807 | 56 | 97 | 1.0 | 4.0 | 0.00 | 0.00 | 0.00 | 94 | 1017.0 |
| 20260506104304 | 56 | 83 | 3.0 | 4.0 | 0.00 | 0.00 | 0.00 | 94 | 1017.2 |
| 20260506103802 | 56 | 72 | 2.0 | 4.0 | 0.00 | 0.00 | 0.00 | 94 | 1017.1 |
| 20260506103259 | 56 | 84 | 3.0 | 5.0 | 0.00 | 0.00 | 0.00 | 94 | 1017.1 |
| 20260506102756 | 56 | 97 | 3.0 | 6.0 | 0.00 | 0.00 | 0.00 | 94 | 1017.2 |
| 20260506102254 | 56 | 93 | 3.0 | 4.0 | 0.00 | 0.00 | 0.00 | 94 | 1017.1 |
| 20260506101751 | 56 | 88 | 2.0 | 3.0 | 0.00 | 0.00 | 0.00 | 94 | 1017.1 |
| 20260506101247 | 56 | 79 | 2.0 | 3.0 | 0.00 | 0.00 | 0.00 | 94 | 1017.2 |
| 20260506100745 | 56 | 89 | 2.0 | 2.0 | 0.00 | 0.00 | 0.00 | 94 | 1017.2 |
| 20260506100243 | 56 | 58 | 0.0 | 2.0 | 0.00 | 0.00 | 0.00 | 94 | 1017.1 |
| 20260506095741 | 56 | 47 | 2.0 | 2.0 | 0.00 | 0.00 | 0.00 | 94 | 1017.1 |
| 20260506095238 | 56 | 111 | 1.0 | 2.0 | 0.00 | 0.00 | 0.00 | 93 | 1017.2 |
| 20260506094734 | 56 | 83 | 2.0 | 3.0 | 0.00 | 0.00 | 0.00 | 93 | 1017.1 |
| 20260506094233 | 57 | 50 | 1.0 | 2.0 | 0.00 | 0.00 | 0.00 | 93 | 1017.3 |
| 20260506093731 | 57 | 77 | 2.0 | 3.0 | 0.00 | 0.00 | 0.00 | 93 | 1017.3 |
| 20260506093228 | 57 | 98 | 0.0 | 3.0 | 0.00 | 0.00 | 0.00 | 93 | 1017.2 |
| 20260506092726 | 57 | 88 | 2.0 | 4.0 | 0.00 | 0.00 | 0.00 | 93 | 1017.1 |
| 20260506092223 | 57 | 92 | 2.0 | 3.0 | 0.00 | 0.00 | 0.00 | 92 | 1017.1 |
| 20260506091721 | 57 | 80 | 2.0 | 3.0 | 0.00 | 0.00 | 0.00 | 92 | 1017.3 |
| 20260506091218 | 57 | 84 | 0.0 | 2.0 | 0.00 | 0.00 | 0.00 | 92 | 1017.3 |
| 20260506090716 | 57 | 109 | 1.0 | 4.0 | 0.00 | 0.00 | 0.00 | 92 | 1017.3 |
| 20260506090212 | 58 | 32 | 0.0 | 4.0 | 0.00 | 0.00 | 0.00 | 91 | 1017.4 |
| 20260506085710 | 58 | 113 | 2.0 | 4.0 | 0.00 | 0.00 | 0.00 | 91 | 1017.2 |
| 20260506085205 | 58 | 113 | 3.0 | 3.0 | 0.00 | 0.00 | 0.00 | 90 | 1017.5 |
| 20260506084702 | 58 | 82 | 1.0 | 2.0 | 0.00 | 0.00 | 0.00 | 90 | 1017.5 |
| 20260506084158 | 58 | 255 | 0.0 | 1.0 | 0.00 | 0.00 | 0.00 | 90 | 1017.4 |
| 20260506083655 | 59 | 294 | 1.0 | 3.0 | 0.00 | 0.00 | 0.00 | 90 | 1017.4 |
| 20260506083153 | 59 | 257 | 1.0 | 2.0 | 0.00 | 0.00 | 0.00 | 90 | 1017.2 |
| 20260506082650 | 59 | 255 | 2.0 | 3.0 | 0.00 | 0.00 | 0.00 | 90 | 1017.6 |
| 20260506082145 | 59 | 260 | 0.0 | 2.0 | 0.00 | 0.00 | 0.00 | 90 | 1017.5 |
| 20260506081643 | 59 | 237 | 1.0 | 2.0 | 0.00 | 0.00 | 0.00 | 90 | 1017.3 |
| 20260506081141 | 59 | 297 | 0.0 | 2.0 | 0.00 | 0.00 | 0.00 | 90 | 1017.5 |
| 20260506080638 | 59 | 254 | 1.0 | 5.0 | 0.00 | 0.00 | 0.00 | 91 | 1017.7 |
| 20260506080135 | 58 | 246 | 2.0 | 3.0 | 0.00 | 0.00 | 0.00 | 91 | 1017.7 |
| 20260506073119 | 58 | 230 | 0.0 | 2.0 | 0.00 | 0.00 | 0.00 | 92 | 1017.8 |
| 20260506072615 | 58 | 207 | 2.0 | 3.0 | 0.00 | 0.00 | 0.00 | 93 | 1017.7 |
| 20260506072113 | 58 | 208 | 0.0 | 2.0 | 0.00 | 0.00 | 0.00 | 92 | 1017.6 |
| 20260506071611 | 58 | 117 | 0.0 | 3.0 | 0.00 | 0.00 | 0.00 | 92 | 1017.6 |
| 20260506071108 | 58 | 124 | 0.0 | 2.0 | 0.00 | 0.00 | 0.00 | 92 | 1017.7 |
| 20260506070605 | 58 | 191 | 0.0 | 2.0 | 0.00 | 0.00 | 0.00 | 93 | 1017.5 |
| 20260506062039 | 59 | 232 | 2.0 | 4.0 | 0.00 | 0.00 | 0.00 | 91 | 1017.2 |
| 20260506061535 | 59 | 233 | 1.0 | 3.0 | 0.00 | 0.00 | 0.00 | 91 | 1017.2 |
| 20260506061033 | 59 | 255 | 5.0 | 8.0 | 0.00 | 0.00 | 0.00 | 91 | 1017.0 |
| 20260506060531 | 59 | 192 | 2.0 | 5.0 | 0.00 | 0.00 | 0.00 | 90 | 1017.1 |
| 20260506051000 | 60 | 251 | 2.0 | 5.0 | 0.00 | 0.00 | 0.00 | 89 | 1016.6 |
| 20260506050458 | 60 | 283 | 3.0 | 5.0 | 0.00 | 0.00 | 0.00 | 89 | 1016.7 |
| 20260506044948 | 60 | 196 | 1.0 | 5.0 | 0.00 | 0.00 | 0.00 | 89 | 1016.5 |
| 20260506044446 | 60 | 221 | 1.0 | 7.0 | 0.00 | 0.00 | 0.00 | 89 | 1016.4 |
| 20260506043943 | 60 | 225 | 2.0 | 5.0 | 0.00 | 0.00 | 0.00 | 88 | 1016.3 |
| 20260506043440 | 60 | 264 | 0.0 | 3.0 | 0.00 | 0.00 | 0.00 | 88 | 1016.3 |
| 20260506042937 | 60 | 217 | 2.0 | 5.0 | 0.00 | 0.00 | 0.00 | 88 | 1016.1 |
| 20260506042437 | 60 | 257 | 4.0 | 7.0 | 0.00 | 0.00 | 0.00 | 88 | 1016.3 |
| 20260506041934 | 60 | 266 | 5.0 | 10.0 | 0.00 | 0.00 | 0.00 | 87 | 1016.2 |
| 20260506041432 | 60 | 241 | 6.0 | 10.0 | 0.00 | 0.00 | 0.00 | 88 | 1016.3 |
| 20260506040929 | 60 | 279 | 2.0 | 6.0 | 0.00 | 0.00 | 0.00 | 87 | 1016.2 |
| 20260506040427 | 60 | 282 | 4.0 | 7.0 | 0.00 | 0.00 | 0.00 | 87 | 1016.0 |
| 20260506035922 | 60 | 287 | 5.0 | 12.0 | 0.00 | 0.00 | 0.00 | 87 | 1015.9 |
| 20260506035420 | 60 | 273 | 3.0 | 8.0 | 0.00 | 0.00 | 0.00 | 87 | 1015.7 |
| 20260506034917 | 61 | 268 | 7.0 | 9.0 | 0.00 | 0.00 | 0.00 | 87 | 1015.6 |
| 20260506034414 | 61 | 256 | 4.0 | 13.0 | 0.00 | 0.00 | 0.00 | 86 | 1015.8 |
| 20260506033911 | 61 | 246 | 2.0 | 8.0 | 0.00 | 0.00 | 0.00 | 86 | 1015.6 |